User: anonymous   Login
Location: Pilipovskiye Korichintsy
(49.1833°N, 27.4667°E)
Time: 12:33:56
(UTC+00:00)
Language:

Cosmos 1674 Rocket - Orbit

View from above orbital plane
View from above orbital plane
View from above satellite
View from above satellite

Ground track
Ground track

The orbit data is extracted from the following two-line orbital elements,

1 15945U 85069B   20274.91157885 +.00000084 +00000-0 +71934-5 0  9992
2 15945 082.5249 087.5015 0018177 276.4208 083.4937 14.84046213878173
Epoch (UTC): 30 September 2020 21:52:40
Eccentricity: 0.0018177
inclination: 82.5249°
perigee height: 604 km
apogee height: 629 km
right ascension of ascending node: 87.5015°
argument of perigee: 276.4208°
revolutions per day: 14.84046213
mean anomaly at epoch: 83.4937°
orbit number at epoch: 87817

The dashed part of the orbit path shows where the satellite is in the earth's shadow,  

DLR